Other Public Products
Issued by NWS Grand Forks, ND

Home | Current Version | Previous Version | Graphics & Text | Print | Product List | Glossary On
Versions: 1 2 3 4 5 6 7 8 9 10 11 12 13 14 15 16 17 18 19 20 21 22 23 24 25 26 27 28 29 30 31 32 33 34 35 36 37 38 39 40 41 42 43 44 45 46 47 48 49 50
000
FPUS83 KFGF 212210
OPUFGF
PRAIRIE TO PINES WEATHER ROUNDUP
NATIONAL WEATHER SERVICE EASTERN NORTH DAKOTA/GRAND FORKS ND
400 PM CST TUE FEB 21 2017

 **SATELLITE DATA USED TO AUGMENT SKY COVER AT AUTOMATED STATIONS**
 *****  WEATHER ACROSS EASTERN NORTH DAKOTA  *****

CITY           SKY/WX    TMP DP  RH WIND       PRES   REMARKS
GRAND FORKS    PTSUNNY   37  31  78 NW9       29.67S HAZE
GRAND FORKS AF FOG       34  34 100 N5        29.67S VSB 3/4
GRAND CITY NWS NOT AVBL
BUXTON         NOT AVBL
DEVILS LAKE    FAIR      38  32  79 SW7       29.65F
FARGO          FAIR      46  40  79 W8        29.68R
WAHPETON ARPT    N/A     50  41  71 NW3       29.68S
$$

 *****  WEATHER ACROSS CENTRAL AND WESTERN NORTH DAKOTA  *****

CITY           SKY/WX    TMP DP  RH WIND       PRES   REMARKS
JAMESTOWN      CLOUDY    45  37  73 W6        29.66F
BISMARCK       CLOUDY    49  37  63 SE5       29.66F
MINOT          CLOUDY    45  36  70 W6        29.64R
MINOT AFB      FAIR      40  34  81 W13       29.62S
GARRISON         N/A     45  36  70 W13G26    29.66R
WILLISTON      CLOUDY    46  32  58 W3        29.63F
DICKINSON      FAIR      53  33  46 N5        29.63F
HETTINGER      CLOUDY    61  32  33 VRB3      29.63F
$$

 *****  OTHER OBSERVATIONS NORTHEAST NORTH DAKOTA  *****

CITY           SKY/WX    TMP DP  RH WIND       PRES   REMARKS
WALHALLA       NOT AVBL
LANGDON        NOT AVBL
CAVALIER       FOG       32  32 100 NE5       29.68R VSB 3/4
GRAFTON        FOG       32  32 100 CALM      29.70S VSB<1/4
CANDO          NOT AVBL
FORT TOTTEN      N/A     41  32  71 W3        29.95S
ROLLA          FAIR      34  34 100 SE3       29.63S
RUGBY            N/A     34  32  93 CALM      29.64S
 ***** THE ABOVE OBSERVATIONS ARE NON NWS ARE NOT QUALITY
        CONTROLLED AND MAY MIS-REPORT RAIN FOR SNOW...
$$

 *****  OTHER OBSERVATIONS SOUTHEAST NORTH DAKOTA *****

CITY           SKY/WX    TMP DP  RH WIND       PRES   REMARKS
COOPERSTOWN    FAIR      39  37  93 W5        29.66S
VALLEY CITY    FAIR      46  46 100 W7        29.68S
OAKES          NOT AVBL
GWINNER        FAIR      55  43  62 W6        29.67S
BUFFALO        NOT AVBL
WYNDMERE       NOT AVBL
 ***** THE ABOVE OBSERVATIONS ARE NON NWS ARE NOT QUALITY
       CONTROLLED AND MAY MIS-REPORT RAIN FOR SNOW...
$$

  *****  WEATHER ACROSS NORTHERN MINNESOTA  *****

CITY           SKY/WX    TMP DP  RH WIND       PRES   REMARKS
FLAG ISLAND    PTSUNNY   34  30  86 NW5       29.67R FOG
WARROAD        FAIR      36  30  80 CALM      29.68R
ROSEAU         FAIR      37  32  81 CALM      29.66F
HALLOCK        FOG       34  32  93 N6        29.67S VSB 1/4
THF RVR FALLS  FAIR      44  37  76 W5        29.66S
HALSTAD          N/A     44  39  83 W6          N/A
FOSSTON        FAIR      45  39  81 W7        29.66R
BAUDETTE       FAIR      42  34  73 SE3       29.65S
WASKISH        FAIR      48  37  66 W3        29.64S
CROOKSTON      FAIR      39  37  93 NW5       29.68R FOG
$$
  *****  WEATHER ACROSS CENTRAL AND WEST MINNESOTA  *****

CITY           SKY/WX    TMP DP  RH WIND       PRES   REMARKS
BEMIDJI        FAIR      47  35  62 S5        29.64S
PARK RAPIDS    FAIR      44  35  70 SW6       29.66R
WADENA         FAIR      46  39  76 SW10      29.67S
DETROIT LAKES  FAIR      46  39  76 W6        29.68S
MOORHEAD       FAIR      45  39  81 W5        29.68S
FERGUS FALLS   FAIR      50  43  76 W5        29.71F
ELBOW LAKE     FAIR      51  42  72 CALM      29.69S
MORRIS MN      FAIR      55  45  67 W6        29.68R
STAPLES        FAIR      48  37  66 SW5       29.67S
WHEATON        FAIR      55  39  54 W3        29.69F
$$
  *****  WEATHER ELSEWHERE ACROSS MINNESOTA  *****

CITY           SKY/WX    TMP DP  RH WIND       PRES   REMARKS
DULUTH         FAIR      49  35  58 S7        29.68S
INTRNTL FALLS  FAIR      41  33  73 NE7       29.64F
ELY            FAIR      50  30  46 CALM      29.67F
CLOQUET        FAIR      48  34  57 S6        29.68F
BRAINERD       FAIR      50  40  68 SW8       29.68R
HIBBING        FAIR      47  31  53 S6        29.67R
ALEXANDRIA     CLOUDY    50  42  74 W6        29.68S
SAINT CLOUD    FAIR      55  44  66 SW10      29.68S
MINNEAPOLIS    PTSUNNY   61  42  49 S9G18     29.71F
$$

  *****  WEATHER ACROSS SOUTH DAKOTA  *****

CITY           SKY/WX    TMP DP  RH WIND       PRES   REMARKS
SIOUX FALLS    FAIR      68  40  35 W5        29.71F
BROOKINGS      FAIR      63  40  42 SW13      29.70F
WATERTOWN      FAIR      58  41  53 SW10      29.69F
HURON          FAIR      68  36  30 VRB6      29.68S
SISSETON         N/A     58  42  55 W8        29.66F
ABERDEEN       FAIR      63  36  36 CALM      29.67F
MITCHELL       FAIR      70  36  28 W10       29.70S
PIERRE         FAIR      69  34  27 VRB7      29.64F
MOBRIDGE       FAIR      60  35  39 SE9       29.63F
RAPID CITY     FAIR      71  25  17 W28G41    29.66F
$$

  *****  SOME WEATHER IN NEARBY STATES *****

CITY           SKY/WX    TMP DP  RH WIND       PRES   REMARKS
GLASGOW MT     LGT RAIN  41  36  82 NW17      29.66R
GREAT FALLS MT LGT RAIN  44  37  76 W9        29.63R
CHEYENNE WY    FAIR      60  16  18 SW29G38   29.99F
SCOTTSBLUFF NE FAIR      72  18  13 W32G46    29.83S
OMAHA NE       FAIR      71  36  27 S15       29.83F
DES MOINES IA  FAIR      68  32  26 SW13      29.86F
DAVENPORT IA   FAIR      64  39  39 SW3       29.90F
CHICAGO IL     PTSUNNY   65  51  60 W6        29.89F
EAU CLAIRE WI  FAIR      59  37  44 S14       29.75F
LA CROSSE WI   FAIR      61  38  42 S14       29.82F
$$

  *****  SOME NATIONAL WEATHER *****

CITY           SKY/WX    TMP DP  RH WIND       PRES   REMARKS
LA GUARDIA NY  NOT AVBL
RALEIGH NC     CLOUDY    63  34  33 E8        30.14S
ATLANTA GA     LGT RAIN  64  60  87 E9        30.00S
NEW ORLEANS LA PTSUNNY   71  53  52 CALM      29.84F
OKLAHOMA CITY  FAIR      70  34  26 N13       29.95F
ALBUQUERQUE NM FAIR      67  31  26 NE3       30.23F
SALT LAKE CITY PTSUNNY   64  34  32 S31G45    29.90F
LOS ANGELES CA PTSUNNY   63  55  75 W8        30.25F
BOISE ID       PTSUNNY   54  26  34 W21       29.90S
SEATTLE WA     CLOUDY    45  40  82 NE6       29.96R
$$

*** WEATHER ACROSS MANITOBA...SASKATCHEWAN AND ONTARIO ***
                ***ONTARIO***

CITY           SKY/WX    TMP DP  RH WIND       PRES   REMARKS
GERALDTON      PTSUNNY   37  28  70 W13G20    29.66R
THUNDER BAY    PTSUNNY   46  32  57 W5        29.70F
SIOUX LOOKOUT  PTSUNNY   37  30  75 W3        29.65F
TORONTO        CLOUDY    39  36  87 S5        29.94R
BIG TROUT LK   CLOUDY    28  23  80 W22G35    29.46S WCI  15
PICKLE LAKE    FLURRIES  34  30  86 W15G22    29.58S WCI  24
DRYDEN         CLOUDY    36  32  87 W6        29.65S
KENORA         FLURRIES  34  30  86 W3        29.67R
$$
                *** MANITOBA***

CITY           SKY/WX    TMP DP  RH WIND       PRES   REMARKS
BRANDON        CLOUDY    36  30  80 E5        29.66S
DAUPHIN        CLOUDY    37  30  75 W5        29.67R
ISLAND LAKE    FLURRIES  27  23  86 W14       29.58S WCI  15
PILOT MOUND      N/A     36  34  93 NE3         N/A
THE PAS        CLOUDY    34  23  64 W17       29.64S WCI  23
THOMPSON       LGT SNOW  18  12  79 NW6       29.57R WCI   9
WINNIPEG       CLOUDY    34  32  93 W5        29.68F
LYNN LAKE      FLURRIES  16  12  86 NW8       29.59R WCI   5
GILLAM         FLURRIES  12   5  73 W16G24    29.50R WCI  -4
$$
                ***SASKATCHEWAN***

CITY           SKY/WX    TMP DP  RH WIND       PRES   REMARKS
ESTEVAN        MOSUNNY   39  34  81 W7        29.63R
KINDERSLEY     MOSUNNY   34  25  69 NE7       29.71R
LLOYDMINSTER   CLOUDY    34  28  80 SW7       29.69S
PRINCE ALBERT  CLOUDY    34  23  64 W7        29.70S
REGINA         CLOUDY    34  30  86 N10G17    29.69R
YORKTON        CLOUDY    36  30  80 N8        29.67S
N. BATTLEFORD  CLOUDY    34  25  69 SW6       29.73F
LA RONGE       CLOUDY    28  23  80 W10       29.67R WC


USA.gov is the U.S. government's official web portal to all federal, state and local government web resources and services.